Temperature
30 31 32 32 32 32 32 32 31 31 31 31 32 31 31 30 29 28 28 27 27 26 25 24 23 23 22 21 21 21 20 20 19 19 19 18 18 18 18 18 18 18 18 18
28 30 31 31 31 32 32 32 32 32 31 32 32 31 30 29 28 28 27 27 26 25 24 24 23 22 22 21 21 21 20 20 19 19 19 18 18 18 18 18 18 18 18 18
27 29 29 29 31 31 31 32 31 31 31 31 31 30 29 29 28 28 27 26 25 24 24 23 22 22 22 21 21 20 20 19 19 19 19 18 18 18 18 18 18 18 18 18
27 27 26 29 31 32 31 31 31 31 31 31 30 29 29 28 28 27 26 25 24 24 23 23 22 22 22 21 21 20 20 19 19 19 19 18 18 18 18 18 18 18 18 17
26 26 27 28 30 31 30 30 30 30 30 30 29 29 28 28 27 26 25 24 24 23 23 22 22 22 21 21 20 20 19 19 19 19 18 18 18 18 18 18 18 17 17 17
25 25 25 27 30 30 30 28 29 29 29 29 28 28 28 26 25 25 24 23 23 22 22 22 21 21 21 20 20 20 20 19 19 19 18 18 18 18 18 18 17 17 17 17
25 25 26 28 29 30 28 27 28 28 27 27 26 26 26 25 24 24 23 22 22 22 21 21 21 21 20 20 20 20 19 19 19 18 18 18 18 18 18 17 17 17 17 17
24 24 25 27 28 27 26 26 26 26 25 25 25 25 24 24 23 23 22 22 21 21 20 20 20 20 20 20 19 19 19 19 19 18 18 18 18 17 17 17 17 17 17 17
24 25 25 25 25 25 25 25 24 24 24 23 23 23 23 22 22 22 21 21 20 20 20 19 19 19 19 19 19 19 19 18 18 18 18 18 17 17 17 17 17 16 16 16
24 24 24 24 23 23 23 23 23 23 23 23 23 22 22 21 21 21 21 20 20 19 19 19 19 19 19 19 18 18 18 18 18 18 17 17 17 17 17 16 16 16 16 16
22 23 23 23 22 22 22 22 22 22 22 22 22 21 21 21 20 20 20 19 19 19 18 18 18 18 18 18 18 18 17 17 17 17 17 17 17 17 16 16 16 16 16 16
21 21 22 21 21 21 21 21 21 21 21 21 21 20 20 20 20 19 19 18 18 18 18 18 18 18 18 18 17 17 17 17 17 17 17 16 16 16 16 16 16 16 16 16
20 20 20 20 20 20 20 20 20 20 20 20 20 20 19 19 19 18 18 18 18 17 17 17 17 17 17 17 17 17 17 17 17 17 16 16 16 16 16 16 16 16 16 16
19 19 19 19 19 19 19 19 19 20 20 20 19 19 19 18 18 18 18 18 17 17 17 17 17 17 17 17 17 17 16 16 16 16 16 16 16 16 16 16 16 16 16 16
18 18 18 18 18 18 18 19 19 19 19 19 19 18 18 18 18 18 17 17 17 17 17 16 16 16 16 16 16 16 16 16 16 16 16 16 16 16 16 16 16 16 15 15
17 17 17 17 18 18 18 18 18 18 18 18 18 18 18 18 17 17 17 17 17 16 16 16 16 16 16 16 16 16 16 16 16 16 16 16 16 16 16 16 16 16 15 15
17 17 17 17 17 17 17 17 17 17 17 17 17 17 17 17 17 17 16 16 16 16 16 15 15 15 15 15 15 15 15 16 16 16 16 16 16 16 16 15 15 15 15 15
16 16 16 16 17 17 17 17 17 17 17 17 17 17 17 16 16 16 16 15 15 15 15 15 15 15 15 15 15 15 15 15 15 16 15 15 15 15 15 15 15 15 15 15
16 16 16 16 16 16 16 16 16 16 16 16 16 16 16 16 15 15 15 15 15 15 14 14 15 15 15 15 15 15 15 15 15 15 15 15 15 15 15 15 15 15 15 15
15 15 15 15 15 15 15 15 16 16 16 15 15 15 15 15 15 15 14 14 14 14 14 14 14 14 14 14 14 14 15 15 15 15 15 15 15 15 15 15 15 15 15 14
15 15 15 15 15 15 15 15 15 15 15 15 14 14 14 14 14 14 14 14 14 14 14 14 14 14 14 14 14 14 14 15 15 15 15 15 15 15 15 15 15 15 14 14
14 14 14 14 14 14 14 14 14 14 14 14 14 14 14 13 14 13 13 13 13 13 13 13 13 13 13 13 14 14 14 14 14 14 14 14 14 14 14 14 14 14 14 14
13 13 13 13 13 13 13 13 13 13 13 13 13 13 13 13 13 13 13 13 13 13 13 13 13 13 13 13 13 13 14 14 14 14 14 14 14 14 14 14 14 14 13 13
13 13 12 12 13 13 13 13 13 13 13 13 13 13 13 13 13 13 13 13 13 13 13 12 12 13 13 12 13 13 13 13 13 14 14 14 14 14 13 13 13 13 13 12
12 12 12 12 12 12 12 12 12 13 13 13 13 13 13 13 13 13 13 13 13 12 12 12 13 12 12 12 12 13 13 13 13 13 13 13 13 13 13 13 13 12 12 12
12 12 12 12 12 12 13 13 13 12 13 13 13 13 13 13 12 12 12 12 12 12 12 12 12 12 12 12 12 12 12 12 12 12 12 12 13 12 12 12 12 12 12 11
13 12 12 12 12 12 12 12 13 13 13 13 13 13 13 13 13 12 12 12 12 12 12 12 12 12 12 12 12 12 12 12 12 12 12 12 12 12 12 12 11 11 11 11
Wind_Speed
15 16 15 13 13 13 14 13 12 10 7 4 4 3 4 6 6 5 6 6 6 8 8 8 9 8 8 8 7 7 8 8 7 6 5 5 4 4 4 3 4 3 3 2
16 17 17 16 15 14 14 13 14 12 9 4 2 2 4 6 7 7 6 6 6 7 7 7 8 8 8 8 8 7 7 7 6 6 6 5 5 4 4 4 3 3 3 2
15 15 16 18 16 15 14 13 11 10 6 4 2 0 1 3 4 6 7 6 5 6 6 6 6 7 8 8 8 8 7 7 7 7 6 6 6 5 5 4 4 3 3 2
13 14 18 13 11 12 12 10 9 7 6 4 2 1 1 2 3 4 4 5 5 5 6 6 6 7 7 8 8 8 8 7 7 7 6 6 5 5 5 4 3 3 3 3
12 16 16 13 12 11 11 9 7 7 7 5 3 2 2 2 3 4 4 4 4 4 5 5 6 6 6 8 8 8 9 8 8 7 7 6 5 5 5 4 4 4 3 3
13 15 16 11 10 9 10 10 6 4 4 3 3 5 1 3 4 5 5 5 4 4 4 5 5 5 6 7 8 8 8 8 8 8 7 7 6 5 4 4 4 4 4 4
17 18 13 10 10 9 11 6 1 1 1 1 2 2 2 3 4 4 5 5 4 3 3 3 4 5 5 6 6 6 6 7 8 8 8 7 6 5 5 4 4 4 4 4
15 18 14 7 8 8 2 4 3 4 4 2 2 3 3 4 4 4 4 4 4 3 3 3 3 4 5 4 4 4 5 6 8 8 8 8 6 6 6 6 5 5 4 4
9 9 2 3 2 3 2 3 3 2 3 2 2 2 3 4 4 3 4 4 3 3 3 3 2 3 4 3 4 4 5 5 6 6 6 5 6 6 6 5 5 4 4 4
7 6 3 2 2 2 1 1 2 1 1 1 1 1 1 3 2 2 3 3 3 3 2 2 2 2 3 3 3 4 5 5 5 5 5 5 4 5 5 5 5 4 4 4
8 6 6 5 3 3 3 1 1 1 1 1 0 1 1 2 2 2 2 2 2 2 2 2 2 3 3 4 4 4 5 4 5 5 5 4 4 2 4 2 3 3 3 2
8 6 6 5 3 4 3 3 3 2 3 2 1 0 1 1 1 2 2 2 2 2 2 2 2 2 3 3 4 5 4 4 4 5 5 5 4 3 2 2 4 4 4 3
8 8 6 7 6 5 5 5 5 4 3 3 2 2 2 1 2 2 3 3 3 3 2 2 3 3 3 3 4 5 5 5 5 5 5 5 5 4 4 2 2 3 4 4
6 6 7 6 6 6 7 7 5 4 3 3 2 2 2 2 2 3 3 3 3 3 3 3 3 3 3 3 4 4 5 5 5 5 5 5 5 5 5 5 4 3 4 6
8 8 8 7 7 7 6 6 5 5 5 4 3 3 3 3 3 3 2 3 2 3 3 3 4 3 3 4 4 5 5 4 4 4 5 5 5 5 5 5 4 4 3 4
7 7 7 8 8 8 7 7 6 6 5 4 4 4 4 3 3 2 2 2 3 4 3 3 3 3 3 4 4 5 5 5 5 5 5 5 6 6 5 5 5 5 5 5
8 8 8 8 8 8 8 8 7 6 5 5 5 4 4 3 2 2 2 2 2 2 2 3 2 1 2 3 5 5 4 4 6 5 5 5 5 5 4 4 5 5 5 6
9 9 9 8 7 7 6 7 7 6 5 4 4 4 4 4 3 2 2 1 1 1 2 2 2 1 2 3 3 3 3 4 4 5 4 3 3 3 4 4 4 4 3 5
7 8 8 8 7 6 5 5 5 4 4 4 4 3 3 3 3 2 2 2 3 3 2 2 2 3 3 2 2 3 4 4 3 3 3 3 4 4 5 4 4 4 3 4
5 5 5 4 3 4 4 3 3 3 3 3 3 3 3 2 2 2 2 3 3 3 2 2 3 3 3 2 2 4 4 4 3 2 2 3 3 4 4 4 3 3 3 4
4 4 3 2 2 3 3 3 3 3 3 4 4 3 3 2 2 3 3 3 2 2 3 3 3 2 2 2 3 4 4 3 3 2 3 3 3 3 3 3 2 2 2 2
3 3 3 3 3 3 3 3 3 4 4 4 4 3 3 3 3 3 3 3 3 2 3 3 3 2 2 2 3 4 4 3 3 2 2 3 3 3 2 2 1 1 1 2
3 3 2 2 3 3 3 3 3 4 4 4 4 3 3 3 3 3 3 3 4 4 3 2 2 1 2 3 3 3 3 3 3 3 3 3 3 2 2 2 1 1 1 1
2 2 2 3 3 3 3 3 4 3 3 3 4 4 4 4 3 3 2 3 3 5 3 3 4 4 4 3 3 3 3 3 3 4 3 3 2 2 2 2 1 2 2 3
2 2 3 3 3 3 4 4 4 4 4 4 4 4 5 4 4 3 3 3 5 5 4 4 7 7 6 5 5 4 3 3 3 3 3 3 3 2 2 1 1 2 2 2
2 2 2 2 2 2 3 2 3 3 3 3 3 3 3 3 3 3 3 4 5 5 5 4 4 6 5 4 3 3 3 3 3 3 3 3 2 2 1 1 1 2 2 1
2 1 1 2 2 2 1 2 2 2 2 2 2 2 2 2 2 2 3 3 3 3 3 3 3 3 3 3 3 2 2 2 3 2 2 2 1 1 1 1 0 0 0 1
Wind_Direction
268 277 273 259 251 249 252 260 267 270 264 233 163 151 132 124 130 145 149 171 158 152 150 154 156 155 158 163 163 164 161 164 164 166 165 160 158 163 159 158 168 157 157 161
267 266 268 265 257 253 253 254 259 263 264 267 120 142 130 133 144 153 162 168 154 146 145 150 154 160 163 163 162 158 160 163 161 162 161 164 162 162 159 163 169 158 165 165
261 262 265 259 255 252 253 254 257 256 257 269 251 141 153 138 149 158 161 153 156 150 150 152 157 157 161 164 162 160 161 165 164 163 162 167 173 168 171 172 174 169 169 164
260 261 253 258 263 261 259 259 257 257 267 285 280 176 198 137 140 142 148 147 144 154 155 161 163 165 166 169 167 165 167 170 166 166 167 170 172 171 172 170 178 180 182 169
254 254 250 253 260 258 256 257 258 257 264 266 292 240 191 116 120 128 129 128 134 150 157 163 168 167 165 172 171 171 174 174 172 172 168 173 175 177 177 175 181 192 181 175
248 252 253 250 254 255 255 249 254 262 277 278 286 261 204 78 86 110 110 115 126 143 148 152 163 166 172 175 176 178 177 175 171 170 172 178 179 182 182 181 191 193 183 184
244 251 254 267 269 264 246 246 317 242 310 295 297 329 45 82 87 91 104 119 123 133 138 146 156 156 175 179 176 179 175 171 170 173 178 179 178 180 182 189 195 197 193 190
238 247 249 282 264 256 295 47 56 57 49 37 53 64 76 88 94 109 117 122 127 128 132 140 156 161 173 179 171 169 170 172 174 177 189 185 177 184 188 193 196 200 197 198
245 246 292 333 341 23 46 63 38 56 67 25 51 79 102 97 96 117 125 128 127 122 122 127 143 157 167 165 163 169 166 171 174 177 178 173 178 184 189 194 202 205 199 202
258 247 261 306 334 347 12 24 13 15 41 356 38 43 109 116 116 115 116 122 113 120 136 142 153 165 160 159 168 175 172 170 171 171 174 176 186 183 186 192 200 200 200 204
261 252 259 252 273 303 304 292 322 314 249 270 65 52 40 117 131 137 126 125 126 138 151 158 164 172 172 171 173 176 167 164 169 171 167 168 172 178 183 177 187 196 203 200
263 269 274 271 288 294 296 287 277 263 253 256 210 247 287 186 159 161 157 145 141 157 173 169 183 183 168 170 170 172 173 179 185 180 174 177 174 170 88 140 147 143 137 141
277 280 284 285 290 289 293 287 275 264 256 256 243 219 232 231 193 181 178 176 171 181 185 182 190 187 173 171 170 174 183 189 191 186 181 185 189 187 181 170 143 147 166 158
273 272 272 273 277 281 281 285 280 274 259 247 238 227 209 217 215 203 191 189 193 195 199 196 201 196 178 180 182 187 196 193 197 194 185 191 198 199 201 199 197 205 198 188
270 263 258 266 268 268 268 269 265 261 255 245 244 237 216 218 222 215 189 195 206 216 207 203 205 203 182 185 195 199 208 207 201 203 203 202 199 205 211 209 209 208 197 179
271 265 256 257 261 258 256 254 254 256 251 238 236 239 228 222 221 205 190 196 216 230 214 205 206 200 190 193 201 210 216 214 210 215 213 208 207 209 213 208 202 205 205 189
259 258 256 254 257 254 251 249 246 245 237 229 225 226 217 212 206 201 211 213 218 218 206 191 182 193 212 208 216 221 213 205 210 222 227 220 218 213 211 214 212 208 206 182
256 260 262 260 257 249 246 245 241 233 229 222 219 215 201 192 198 207 209 182 170 203 201 177 166 187 224 227 241 233 219 213 215 217 217 223 224 221 223 222 220 216 198 184
256 258 258 253 253 249 246 246 238 231 218 208 212 214 194 187 183 190 179 182 202 213 211 197 190 221 224 224 262 247 249 237 223 216 217 210 217 220 222 224 220 207 197 190
269 269 261 247 238 238 243 247 239 223 213 200 198 194 198 204 198 195 197 224 232 231 185 180 202 223 226 207 241 244 240 237 221 210 224 226 227 228 224 222 216 212 206 197
273 273 267 233 238 247 243 243 242 233 222 216 212 204 201 206 206 206 217 240 216 188 193 198 219 222 232 233 215 239 244 243 232 213 220 238 244 246 239 230 218 206 198 209
281 276 266 241 222 227 236 234 233 236 230 220 212 208 207 218 227 228 228 226 210 194 199 212 221 216 242 254 242 232 235 249 248 233 226 233 234 239 242 229 215 209 205 224
299 297 288 270 248 237 240 237 231 228 223 212 200 203 226 237 234 228 234 205 195 193 210 225 211 195 232 239 259 255 246 249 253 243 237 231 237 242 239 242 241 203 206 223
300 292 276 264 257 246 242 240 234 221 215 219 210 198 210 226 227 229 220 172 173 176 209 208 188 197 219 231 249 247 242 248 257 255 250 240 234 229 219 211 209 197 203 213
287 272 265 254 235 228 227 221 211 209 211 211 213 205 210 213 216 216 197 184 179 183 215 206 197 207 224 233 227 230 233 240 251 259 261 246 224 210 194 189 201 209 212 216
274 262 255 249 253 245 226 203 190 198 201 197 200 200 199 186 193 201 195 203 204 203 219 220 206 210 228 233 235 241 236 226 236 245 259 266 254 237 220 222 220 226 221 227
247 232 224 230 233 236 233 221 203 193 187 182 177 189 184 181 189 194 203 207 206 216 224 215 213 212 218 226 236 234 231 243 249 237 241 252 240 220 191 163 230 209 186 186
Height
1461 1455 1452 1453 1454 1454 1458 1461 1467 1465 1463 1460 1458 1461 1464 1467 1471 1475 1479 1482 1485 1487 1491 1494 1498 1500 1503 1506 1508 1511 1512 1514 1516 1518 1520 1522 1523 1524 1526 1527 1528 1528 1529 1529
1466 1458 1455 1455 1452 1452 1454 1455 1458 1458 1460 1455 1457 1461 1464 1468 1471 1475 1479 1482 1484 1487 1489 1492 1495 1498 1501 1504 1506 1508 1510 1512 1515 1517 1518 1520 1521 1523 1524 1525 1526 1527 1528 1528
1472 1462 1460 1464 1452 1451 1452 1450 1454 1460 1459 1456 1459 1463 1465 1468 1471 1474 1478 1480 1483 1485 1488 1490 1493 1496 1498 1501 1504 1506 1508 1510 1513 1514 1516 1517 1519 1521 1522 1523 1524 1525 1526 1527
1472 1472 1482 1460 1445 1445 1448 1450 1450 1453 1454 1456 1460 1463 1466 1468 1471 1474 1477 1479 1482 1484 1487 1489 1492 1494 1497 1499 1502 1504 1506 1508 1510 1512 1514 1515 1517 1519 1520 1521 1523 1523 1524 1525
1473 1475 1468 1456 1448 1446 1450 1453 1451 1453 1455 1457 1459 1462 1465 1468 1471 1473 1476 1478 1481 1483 1485 1487 1490 1492 1494 1497 1499 1501 1503 1505 1507 1509 1511 1513 1515 1516 1518 1519 1520 1521 1522 1523
1472 1477 1475 1459 1447 1446 1449 1458 1453 1454 1456 1458 1460 1463 1467 1469 1470 1473 1475 1478 1480 1482 1484 1486 1488 1490 1492 1493 1496 1498 1500 1502 1504 1507 1509 1510 1512 1514 1516 1517 1518 1519 1520 1521
1470 1471 1461 1450 1446 1447 1460 1460 1454 1455 1458 1461 1463 1466 1468 1469 1471 1473 1475 1477 1479 1481 1483 1484 1486 1487 1489 1490 1492 1495 1498 1500 1502 1504 1506 1508 1510 1512 1514 1515 1516 1518 1518 1519
1465 1469 1465 1450 1448 1452 1456 1455 1456 1458 1460 1463 1465 1466 1468 1470 1472 1474 1475 1477 1479 1480 1482 1483 1484 1485 1487 1488 1490 1493 1495 1497 1499 1501 1504 1506 1508 1510 1511 1513 1513 1514 1516 1516
1457 1459 1455 1453 1454 1455 1456 1457 1459 1460 1462 1464 1465 1467 1469 1471 1473 1474 1476 1477 1479 1480 1481 1482 1483 1484 1485 1487 1489 1491 1493 1495 1496 1499 1500 1503 1505 1507 1509 1510 1511 1512 1513 1514
1454 1452 1453 1455 1456 1457 1458 1459 1460 1462 1463 1464 1466 1467 1469 1471 1473 1474 1476 1477 1478 1479 1480 1481 1482 1483 1484 1485 1486 1488 1490 1492 1494 1496 1498 1500 1502 1503 1505 1507 1508 1509 1510 1511
1454 1453 1454 1455 1457 1458 1459 1460 1461 1462 1464 1465 1466 1468 1469 1471 1473 1474 1476 1477 1477 1478 1479 1480 1481 1481 1482 1483 1484 1486 1488 1489 1491 1493 1495 1497 1499 1501 1502 1503 1505 1506 1507 1508
1455 1455 1455 1456 1457 1458 1459 1460 1461 1462 1463 1464 1465 1467 1469 1470 1472 1473 1474 1475 1476 1477 1478 1478 1479 1480 1480 1481 1482 1484 1485 1487 1489 1491 1493 1494 1496 1498 1499 1501 1502 1503 1504 1505
1454 1455 1455 1456 1456 1457 1458 1458 1459 1460 1461 1463 1464 1466 1468 1469 1470 1472 1473 1474 1475 1475 1476 1477 1477 1478 1478 1479 1481 1482 1483 1485 1487 1489 1490 1492 1494 1495 1496 1498 1499 1500 1501 1502
1453 1453 1454 1454 1456 1456 1457 1457 1457 1458 1459 1461 1462 1464 1466 1467 1469 1470 1471 1472 1473 1474 1474 1475 1475 1476 1476 1477 1479 1480 1482 1483 1485 1486 1487 1489 1491 1492 1494 1495 1496 1496 1497 1498
1451 1451 1452 1452 1453 1454 1454 1455 1455 1456 1457 1458 1460 1462 1464 1465 1467 1468 1469 1470 1471 1471 1472 1472 1473 1473 1474 1475 1477 1478 1479 1481 1482 1483 1485 1486 1488 1489 1491 1492 1493 1493 1494 1494
1449 1450 1450 1450 1450 1451 1452 1452 1452 1453 1454 1455 1457 1460 1461 1463 1464 1465 1467 1468 1468 1469 1469 1470 1471 1471 1472 1473 1474 1475 1477 1478 1480 1481 1482 1483 1485 1486 1487 1488 1488 1489 1490 1491
1446 1446 1447 1447 1447 1447 1448 1449 1450 1451 1452 1454 1455 1457 1459 1460 1461 1463 1464 1465 1466 1467 1467 1468 1468 1469 1470 1471 1473 1474 1475 1475 1477 1478 1479 1480 1482 1483 1483 1484 1485 1485 1487 1488
1443 1444 1444 1444 1445 1445 1446 1447 1448 1449 1450 1451 1453 1454 1456 1457 1458 1460 1461 1462 1463 1464 1465 1465 1466 1467 1468 1469 1470 1472 1472 1473 1474 1475 1476 1477 1478 1480 1480 1481 1482 1483 1483 1484
1440 1440 1441 1442 1442 1443 1444 1445 1446 1447 1448 1449 1450 1452 1453 1454 1456 1457 1458 1459 1460 1461 1462 1463 1463 1464 1465 1466 1468 1468 1469 1470 1471 1472 1473 1474 1475 1476 1477 1478 1479 1479 1479 1480
1438 1438 1438 1439 1440 1441 1442 1443 1444 1445 1446 1447 1448 1449 1451 1452 1454 1455 1455 1456 1457 1458 1459 1460 1461 1462 1463 1464 1465 1466 1467 1468 1468 1469 1470 1471 1472 1473 1473 1474 1475 1475 1475 1476
1436 1436 1436 1437 1437 1439 1440 1441 1441 1443 1444 1445 1446 1447 1449 1450 1451 1452 1453 1453 1454 1455 1456 1457 1458 1459 1460 1462 1463 1464 1465 1465 1466 1466 1467 1468 1469 1470 1471 1471 1471 1472 1472 1472
1435 1435 1435 1435 1436 1437 1438 1439 1440 1441 1442 1443 1444 1445 1446 1447 1448 1449 1449 1450 1451 1452 1453 1454 1455 1457 1458 1459 1460 1461 1462 1463 1463 1464 1465 1466 1467 1467 1468 1468 1468 1468 1469 1470
1434 1434 1434 1434 1434 1435 1436 1437 1438 1439 1440 1441 1441 1443 1444 1445 1446 1446 1447 1448 1448 1449 1451 1452 1453 1454 1455 1456 1457 1458 1459 1460 1460 1461 1462 1463 1463 1463 1464 1464 1465 1465 1466 1467
1433 1433 1432 1432 1433 1433 1434 1435 1435 1436 1437 1438 1439 1440 1441 1442 1443 1444 1445 1445 1446 1447 1448 1449 1450 1451 1452 1453 1454 1455 1456 1457 1458 1459 1459 1459 1459 1460 1460 1461 1461 1462 1462 1463
1432 1431 1431 1431 1431 1431 1432 1433 1433 1434 1435 1436 1437 1438 1439 1440 1441 1442 1442 1443 1444 1445 1446 1447 1448 1449 1450 1451 1452 1453 1454 1455 1456 1456 1457 1457 1457 1457 1457 1458 1458 1459 1459 1460
1430 1430 1430 1430 1430 1430 1431 1431 1432 1433 1433 1434 1435 1436 1437 1438 1439 1440 1440 1441 1442 1443 1444 1445 1446 1447 1448 1449 1450 1450 1451 1452 1453 1454 1454 1454 1454 1454 1454 1455 1455 1455 1456 1456
1430 1430 1429 1429 1429 1430 1430 1430 1431 1432 1432 1433 1434 1435 1436 1437 1437 1438 1439 1439 1440 1441 1442 1443 1444 1445 1446 1446 1447 1448 1449 1450 1450 1450 1451 1451 1451 1451 1452 1452 1452 1452 1452 1453